Location: Newark
(36.1222°N, 100.9183°E)
Time: 03:56:56
(UTC+00:00)

N. Korean satellite - Visible Passes

Search period start: 19 March 2019 00:00
Search period end: 29 March 2019 00:00
Orbit: 455 x 511 km, 97.2° (Epoch: 18 March)

Date Brightness Start Highest point End Pass type
(mag) Time Alt. Az. Time Alt. Az. Time Alt. Az.
20 Mar 9.1 22:50:45 10° NE 22:53:49 27° E 22:56:55 10° SSE visible
21 Mar 10.0 22:27:08 10° ENE 22:28:53 13° E 22:30:40 10° ESE visible
24 Mar 9.5 22:45:01 10° NE 22:47:57 23° E 22:50:54 10° SSE visible
25 Mar 10.3 22:21:49 10° ENE 22:22:59 11° E 22:24:10 10° ESE visible
28 Mar 9.7 22:39:16 10° NE 22:42:01 20° E 22:44:47 10° SE visible
